TimeCDT,TemperatureF,Dew PointF,Humidity,Sea Level PressureIn,VisibilityMPH,Wind Direction,Wind SpeedMPH,Gust SpeedMPH,PrecipitationIn,Events,Conditions,WindDirDegrees,DateUTC
12:09 AM,40.3,33.8,78,30.18,10.0,West,16.1,21.9,N/A,,Mostly Cloudy,280,2012-10-05 05:09:00
12:29 AM,40.3,33.3,76,30.18,10.0,West,13.8,20.7,N/A,,Overcast,270,2012-10-05 05:29:00
12:49 AM,41.5,33.1,72,30.18,10.0,West,18.4,23.0,N/A,,Overcast,280,2012-10-05 05:49:00
1:08 AM,41.5,33.4,73,30.18,10.0,West,17.3,-,N/A,,Overcast,280,2012-10-05 06:08:00
1:29 AM,41.5,32.9,71,30.17,10.0,West,15.0,25.3,N/A,,Overcast,280,2012-10-05 06:29:00
1:49 AM,41.9,31.5,66,30.17,10.0,West,18.4,33.4,N/A,,Overcast,280,2012-10-05 06:49:00
2:09 AM,41.5,29.7,63,30.17,10.0,West,20.7,28.8,N/A,,Overcast,280,2012-10-05 07:09:00
2:28 AM,41.5,28.4,60,30.17,10.0,West,18.4,28.8,N/A,,Overcast,280,2012-10-05 07:28:00
2:47 AM,40.3,28.8,63,30.17,10.0,West,16.1,24.2,N/A,,Scattered Clouds,280,2012-10-05 07:47:00
3:09 AM,39.2,28.4,65,30.16,10.0,West,17.3,26.5,N/A,,Clear,280,2012-10-05 08:09:00
3:28 AM,39.2,29.8,69,30.17,10.0,West,15.0,-,N/A,,Clear,280,2012-10-05 08:28:00
3:49 AM,37.2,28.9,72,30.17,10.0,West,13.8,19.6,N/A,,Clear,280,2012-10-05 08:49:00
4:09 AM,36.5,28.9,74,30.16,10.0,West,12.7,20.7,N/A,,Clear,280,2012-10-05 09:09:00
4:29 AM,36.5,29.8,77,30.17,10.0,West,13.8,-,N/A,,Clear,270,2012-10-05 09:29:00
4:49 AM,35.4,29.3,78,30.16,10.0,West,10.4,17.3,N/A,,Clear,270,2012-10-05 09:49:00
5:08 AM,34.0,28.2,79,30.17,10.0,West,10.4,-,N/A,,Clear,260,2012-10-05 10:08:00
5:29 AM,34.0,28.9,82,30.16,10.0,West,9.2,-,N/A,,Clear,270,2012-10-05 10:29:00
5:49 AM,34.0,29.3,83,30.16,10.0,West,9.2,-,N/A,,Clear,270,2012-10-05 10:49:00
6:09 AM,34.0,29.8,85,30.16,10.0,West,9.2,-,N/A,,Clear,260,2012-10-05 11:09:00
6:29 AM,31.8,27.5,84,30.16,10.0,West,9.2,-,N/A,,Clear,260,2012-10-05 11:29:00
6:49 AM,31.8,27.9,85,30.16,10.0,West,10.4,-,N/A,,Clear,260,2012-10-05 11:49:00
7:08 AM,31.8,27.9,85,30.16,10.0,West,9.2,-,N/A,,Clear,260,2012-10-05 12:08:00
7:29 AM,31.8,28.2,87,30.17,10.0,WSW,9.2,-,N/A,,Clear,250,2012-10-05 12:29:00
7:48 AM,31.8,28.2,87,30.17,10.0,West,10.4,-,N/A,,Clear,260,2012-10-05 12:48:00
8:09 AM,32.2,28.0,85,30.18,10.0,West,10.4,-,N/A,,Clear,260,2012-10-05 13:09:00
8:29 AM,34.0,29.3,83,30.18,10.0,West,12.7,18.4,N/A,,Clear,260,2012-10-05 13:29:00
8:48 AM,34.0,28.4,80,30.18,10.0,West,12.7,19.6,N/A,,Clear,270,2012-10-05 13:48:00
9:05 AM,36.0,29.5,77,30.18,10.0,West,17.3,25.3,N/A,,Clear,280,2012-10-05 14:05:00
9:30 AM,35.6,28.4,75,30.18,10.0,West,17.3,27.6,N/A,,Clear,280,2012-10-05 14:30:00
9:50 AM,35.6,28.4,75,30.18,10.0,WNW,20.7,27.6,N/A,,Clear,290,2012-10-05 14:50:00
10:10 AM,39.2,30.2,70,30.18,10.0,West,18.4,26.5,N/A,,Clear,280,2012-10-05 15:10:00
10:30 AM,39.2,28.4,65,30.17,10.0,WNW,19.6,28.8,N/A,,Clear,290,2012-10-05 15:30:00
10:49 AM,-9999,-9999,N/A,30.17,10.0,West,18.4,27.6,N/A,,Clear,280,2012-10-05 15:49:00
10:50 AM,-9999,-9999,N/A,30.16,10.0,West,18.4,26.5,N/A,,Clear,280,2012-10-05 15:50:00
11:09 AM,40.3,28.2,62,30.16,10.0,WNW,18.4,29.9,N/A,,Clear,290,2012-10-05 16:09:00
11:29 AM,41.7,28.0,58,30.16,10.0,West,20.7,29.9,N/A,,Clear,280,2012-10-05 16:29:00
11:49 AM,41.7,28.0,58,30.16,10.0,WNW,16.1,28.8,N/A,,Scattered Clouds,290,2012-10-05 16:49:00
12:08 PM,42.6,28.2,57,30.15,10.0,WNW,20.7,31.1,N/A,,Scattered Clouds,300,2012-10-05 17:08:00
12:28 PM,42.8,28.2,56,30.16,10.0,WNW,20.7,29.9,N/A,,Scattered Clouds,300,2012-10-05 17:28:00
12:49 PM,44.1,28.9,55,30.16,10.0,WNW,20.7,24.2,N/A,,Scattered Clouds,290,2012-10-05 17:49:00
1:29 PM,44.2,28.4,54,30.15,10.0,WNW,24.2,31.1,N/A,,Scattered Clouds,300,2012-10-05 18:29:00
1:44 PM,44.4,28.6,54,30.15,10.0,WNW,19.6,31.1,N/A,,Scattered Clouds,290,2012-10-05 18:44:00
2:09 PM,46.2,29.7,53,30.15,10.0,WNW,20.7,28.8,N/A,,Scattered Clouds,300,2012-10-05 19:09:00
2:29 PM,45.0,28.9,53,30.15,10.0,West,17.3,28.8,N/A,,Overcast,280,2012-10-05 19:29:00
2:49 PM,45.0,28.8,53,30.15,10.0,WNW,21.9,28.8,N/A,,Overcast,290,2012-10-05 19:49:00
3:09 PM,44.1,28.6,55,30.15,10.0,WNW,17.3,32.2,N/A,,Overcast,290,2012-10-05 20:09:00
3:28 PM,43.9,28.2,54,30.15,10.0,WNW,24.2,32.2,N/A,,Overcast,290,2012-10-05 20:28:00
3:48 PM,43.0,27.7,55,30.15,10.0,WNW,21.9,28.8,N/A,,Overcast,300,2012-10-05 20:48:00
4:09 PM,-9999,-9999,N/A,30.15,10.0,WNW,21.9,29.9,N/A,,Overcast,290,2012-10-05 21:09:00
4:29 PM,42.1,27.7,57,30.15,10.0,WNW,19.6,29.9,N/A,,Overcast,290,2012-10-05 21:29:00
4:48 PM,42.1,27.9,57,30.15,10.0,WNW,18.4,28.8,N/A,,Overcast,300,2012-10-05 21:48:00
5:09 PM,41.5,27.7,58,30.15,10.0,WNW,21.9,32.2,N/A,,Overcast,300,2012-10-05 22:09:00
5:26 PM,41.5,27.9,58,30.16,10.0,NW,23.0,33.4,N/A,,Overcast,310,2012-10-05 22:26:00
5:49 PM,40.6,27.3,59,30.16,10.0,WNW,19.6,29.9,N/A,,Overcast,300,2012-10-05 22:49:00
6:08 PM,40.5,27.3,59,30.16,10.0,WNW,24.2,31.1,N/A,,Overcast,300,2012-10-05 23:08:00
6:28 PM,40.3,27.0,59,30.16,10.0,WNW,20.7,29.9,N/A,,Overcast,290,2012-10-05 23:28:00
6:49 PM,40.3,27.3,60,30.17,10.0,WNW,17.3,27.6,N/A,,Overcast,300,2012-10-05 23:49:00
7:08 PM,40.3,27.5,60,30.17,10.0,West,17.3,27.6,N/A,,Overcast,280,2012-10-06 00:08:00
7:29 PM,40.3,27.5,60,30.17,10.0,WNW,18.4,24.2,N/A,,Overcast,290,2012-10-06 00:29:00
7:49 PM,40.3,28.0,62,30.18,10.0,WNW,13.8,25.3,N/A,,Overcast,290,2012-10-06 00:49:00
8:09 PM,40.3,28.0,62,30.18,10.0,WNW,15.0,24.2,N/A,,Overcast,290,2012-10-06 01:09:00
8:23 PM,40.3,28.4,63,30.18,10.0,West,16.1,25.3,N/A,,Overcast,280,2012-10-06 01:23:00
8:49 PM,40.3,29.1,64,30.18,10.0,WNW,17.3,25.3,N/A,,Overcast,300,2012-10-06 01:49:00
9:05 PM,40.3,29.3,65,30.18,10.0,WNW,12.7,19.6,N/A,,Overcast,300,2012-10-06 02:05:00
9:30 PM,39.2,28.4,65,30.18,10.0,WNW,17.3,25.3,N/A,,Overcast,300,2012-10-06 02:30:00
9:50 PM,39.2,28.4,65,30.18,10.0,WNW,20.7,27.6,N/A,,Overcast,300,2012-10-06 02:50:00
10:30 PM,39.2,30.2,70,30.19,10.0,WNW,15.0,24.2,N/A,,Mostly Cloudy,290,2012-10-06 03:30:00
10:50 PM,35.6,28.4,75,30.19,10.0,WNW,13.8,23.0,N/A,,Mostly Cloudy,290,2012-10-06 03:50:00
11:10 PM,35.6,28.4,75,30.19,10.0,WNW,12.7,20.7,N/A,,Mostly Cloudy,290,2012-10-06 04:10:00
11:30 PM,35.6,28.4,75,30.19,10.0,WNW,15.0,20.7,N/A,,Overcast,290,2012-10-06 04:30:00
11:50 PM,35.6,30.2,81,30.19,10.0,WNW,15.0,20.7,N/A,,Overcast,290,2012-10-06 04:50:00